Hourly Data Report for August 26, 2020

OTTAWA INTL A
ONTARIO
Current Station Operator: NAVCAN

45°19'00.000" N
75°40'00.000" W
114.90 m
6106001
71628
YOW

Download Data

Hourly Data (August 2020)
Hourly Data Report for August 26, 2020
TIME
LST
Temp Definition
°C
Dew Point Definition
°C
Rel Hum Definition
%
Precip. Amount Definition
mm

Wind Dir Definition
10's deg

Wind Spd Definition
km/h
Visibility Definition
km
Stn Press Definition
kPa
Hmdx Definition


Wind Chill Definition


Weather Definition


00:00 12.6 6.7 67   32 17 24.1 100.15     LegendNANA
01:00 11.9 5.8 66   31 20 24.1 100.18     Mainly Clear
02:00 9.9 5.4 73   30 13 24.1 100.22     LegendNANA
03:00 10.6 5.2 69   32 13 24.1 100.22     LegendNANA
04:00 9.8 5.6 75   32 14 24.1 100.21     Clear
05:00 9.0 5.7 80   30 10 24.1 100.28     LegendNANA
06:00 9.5 6.0 79   29 8 24.1 100.30     LegendNANA
07:00 11.2 5.6 68   32 22 24.1 100.33     Clear
08:00 11.7 5.3 64   33 19 24.1 100.35     LegendNANA
09:00 12.8 5.4 61   28 8 24.1 100.33     LegendNANA
10:00 14.7 6.2 56   28 23 24.1 100.36     Mainly Clear
11:00 15.6 6.2 53   28 19 24.1 100.25     LegendNANA
12:00 16.0 5.8 50   28 26 24.1 100.18     LegendNANA
13:00 17.0 6.2 49   30 20 24.1 100.15     Mainly Clear
14:00 17.7 7.0 49   26 22 24.1 100.06     LegendNANA
15:00 18.3 7.4 49   26 23 24.1 100.02     LegendNANA
16:00 18.2 7.2 48   26 19 24.1 99.97     Mainly Clear
17:00 17.6 6.9 49   28 22 24.1 99.92     LegendNANA
18:00 16.5 6.8 52   29 17 24.1 99.87     LegendNANA
19:00 14.2 7.9 65   28 9 24.1 99.86     Mostly Cloudy
20:00 14.5 7.6 63   25 5 24.1 99.87     LegendNANA
21:00 12.3 9.0 80   25 9 24.1 99.91     LegendNANA
22:00 12.2 9.1 81   26 6 24.1 99.87     Cloudy
23:00 11.8 9.1 84   36 1 24.1 99.80     LegendNANA

Notes on Data Quality.

Legend

  • E = Estimated
  • M = Missing
  • NA = Not Available*
  • [empty] = Indicates an unobserved value
Date modified: